sat.trackr.live / text

‹ back to catalog

STARLINK-34445

NORAD 64457 · 2025-130V

PAYLOAD ACTIVE UNKNOWN

§ Identity

Operator
Country
US
Launch date
2025-06-18
Launch site
AFETR
Launch vehicle
Mass (kg)
RCS (m²)

Purposes: comms

External: N2YO · Heavens-Above · Gunter

§ Orbital elements

Epoch: 2026-05-25T02:47:42.906048Z

Period
93.85 min
Inclination
53.1599°
Eccentricity
0.0001254
Mean motion
15.34395171 rev/d
Perigee alt
461.9 km
Apogee alt
463.6 km
Semi-major
6,840.9 km
B*
5.7264e-4
RAAN
92.8795°
Arg perigee
86.9143°
Mean anomaly
273.2003°
Rev number
5,241

§ Raw data

STARLINK-344451 64457U 25130V   26145.11646882  .00019017  00000+0  57264-3 0  99952 64457  53.1599  92.8795 0001254  86.9143 273.2003 15.34395171 52411

JSON: /api/v1/satellites/64457 · /tle

For live sub-satellite position, see the globe view (requires WebGL).

§ Visibility from observer

Set your observer location to see the next 7 days of passes ≥ 10°. The values pass through the URL so the page stays shareable.

No JS? Fill the form by hand. The geolocation button needs JavaScript.